Location: Bannatyne
(13.0833°N, 59.5333°W)
Time: 14:59:32
(UTC+00:00)

Vanguard 3 - Pass Details

Date: 24 January 2020
Orbit: 508 x 3263 km, 33.3° (Epoch: 22 February)

Event Time Altitude Azimuth Distance (km) Brightness Sun altitude
Rises 16:39:58 0° 203° (SSW) 5,138 11.7 56.9°
Reaches altitude 10° 16:43:34 10° 193° (SSW) 4,523 11.7 56.7°
Maximum altitude 16:55:02 31° 136° (SE) 4,011 11.4 55.9°
Drops below altitude 10° 17:10:26 10° 82° (E) 6,158 11.5 54.5°
Sets 17:16:20 0° 73° (ENE) 7,227 11.7 53.8°
